Flag for Canada Weather past 2 weeks in Kawartha Lakes, Ontario, Canada

Now
6 °F

Frigid.


Feels Like: -14 °F
Forecast: -5 / 12 °F
Wind: 20 mph from Northwest

Location: Lagoon City

Current Time: Mar 5, 2015 at 2:04:56 AM

Latest Report: Mar 5, 2015 at 1:00 AM


Visibility: N/A

Pressure: 30.12 "Hg

Humidity: 64%

Dew point: -3 °F

Location of Kawartha LakesLocation

Historic Weather in Kawartha Lakes — Graph

°F

Kawartha Lakes temperature yesterday

Maximum temperature yesterday: 29 °F (at 12:00 AM)
Minimum temperature yesterday: 10 °F (at 11:00 PM)
Average temperature yesterday: 23 °F

Past Weeks' High & Low Weather Summary

 TemperatureHumidityPressure
High29 °F (Mar 4, 12:00 AM)100% (Mar 3, 7:00 PM)30.74 "Hg (Mar 3, 7:00 PM)
Low-15 °F (Feb 20, 7:00 AM)50% (Feb 26, 2:00 PM)29.50 "Hg (Mar 3, 9:00 PM)
Average6 °F76%30.14 "Hg
* Reported Midnight between Feb 17 and Feb 18 — Midnight between Mar 4 and Mar 5, Kawartha Lakes, Weather by CustomWeather, © 2015

Note: Actual official high and low records may vary slightly from our data, if they occured in-between our weather recording intervals... More about our weather records

Advertising

Kawartha Lakes weather history for previous 24 hours

 ConditionsComfort  
Time TempWeatherWind HumidityBarometerVisibility
12:00 AM
Thu, Mar 5
8 °FFrigid.21 mph61%30.11 "HgN/A
11:00 PM
Wed, Mar 4
10 °FFrigid.24 mph64%30.09 "HgN/A
10:00 PM12 °FCold.21 mph73%30.03 "HgN/A
9:00 PM17 °FCold.16 mph78%30.00 "HgN/A
8:00 PM15 °FCold.10 mph84%29.97 "HgN/A
7:00 PM16 °FCold.12 mph80%29.95 "HgN/A
5:00 PM22 °FCold.10 mph65%29.89 "HgN/A
4:00 PM22 °FCold.13 mph73%29.89 "HgN/A
3:00 PM22 °FCold.18 mph71%29.87 "HgN/A
2:00 PM23 °FCold.21 mph70%29.84 "HgN/A
1:00 PM23 °FCold.13 mph69%29.85 "HgN/A
12:00 PM23 °FCold.10 mph75%29.85 "HgN/A
11:00 AM23 °FCold.16 mph74%29.85 "HgN/A
10:00 AM23 °FCold.16 mph81%29.83 "HgN/A
9:00 AM25 °FChilly.14 mph87%29.79 "HgN/A
8:00 AM25 °FCold.13 mph81%29.77 "HgN/A
7:00 AM26 °FChilly.14 mph81%29.75 "HgN/A
6:00 AM26 °FChilly.14 mph81%29.73 "HgN/A
5:00 AM27 °FChilly.17 mph83%29.71 "HgN/A
4:00 AM27 °FChilly.17 mph82%29.67 "HgN/A
3:00 AM28 °FChilly.15 mph91%29.67 "HgN/A
2:00 AM28 °FChilly.17 mph83%29.65 "HgN/A
Weather by CustomWeather, © 2015

See weather overviewHow to use our weather pages